CW8822 Weather Reports


Display with metric or nautical units.
time (UTC)temp
F
wind
direction
speed
MPH
gust
MPH
rain 1hr
in
rain 24hr
in
rain mn
in
humidity
%
barometer
mb
20260505100032 74 292 0.0 2.0 0.00 0.00 0.00 95 1017.2
20260505094516 74 302 0.0 3.0 0.00 0.00 0.00 95 1017.1
20260505093026 74 5 0.0 0.0 0.00 0.00 0.00 95 1016.9
20260505090005 74 8 0.0 0.0 0.00 0.00 0.00 95 1016.9
20260505084503 74 30 0.0 0.0 0.00 0.00 0.00 96 1016.7
20260505080003 74 360 0.0 0.0 0.00 0.00 0.00 95 1016.5
20260505074509 74 360 0.0 0.0 0.00 0.00 0.00 95 1016.4
20260505073007 74 2 0.0 0.0 0.00 0.00 0.00 95 1016.4
20260505071505 74 8 0.0 0.0 0.00 0.00 0.00 95 1016.4
20260505070006 74 8 0.0 2.0 0.00 0.00 0.00 94 1016.4
20260505063005 74 318 0.0 2.0 0.00 0.00 0.00 94 1016.6
20260505061511 75 300 1.0 4.0 0.00 0.00 0.00 94 1016.6
20260505060006 75 307 1.0 3.0 0.00 0.00 0.00 94 1016.7
20260505053010 75 302 1.0 3.0 0.00 0.00 0.00 94 1017.3
20260505051517 75 265 0.0 1.0 0.00 0.00 0.00 93 1017.4
20260505041513 75 261 0.0 0.0 0.00 0.00 0.00 93 1017.9
20260505040015 75 261 0.0 0.0 0.00 0.00 0.00 93 1018.1
20260505034512 76 253 0.0 0.0 0.00 0.00 0.00 92 1018.2
20260505033008 75 248 0.0 0.0 0.00 0.00 0.00 91 1018.3
20260505031524 76 250 0.0 0.0 0.00 0.00 0.00 91 1018.2
20260505030011 76 338 1.0 2.0 0.00 0.00 0.00 91 1018.2
20260505024516 75 301 1.0 3.0 0.00 0.00 0.00 92 1018.2
20260505023018 75 257 0.0 0.0 0.00 0.00 0.00 92 1018.2
20260505021516 75 264 0.0 3.0 0.00 0.00 0.00 91 1018.1
20260505013017 76 275 0.0 2.0 0.00 0.00 0.00 90 1017.8
20260505011514 76 293 0.0 0.0 0.00 0.00 0.00 89 1017.6
20260505010018 76 295 0.0 0.0 0.00 0.00 0.00 89 1017.3
20260505004518 76 284 0.0 1.0 0.00 0.00 0.00 88 1017.0
20260505003024 77 288 0.0 0.0 0.00 0.00 0.00 87 1017.0
20260505001520 77 283 0.0 0.0 0.00 0.00 0.00 86 1017.0
20260505000017 77 342 0.0 2.0 0.00 0.00 0.00 86 1017.1
20260504234505 77 1 0.0 2.0 0.00 0.00 0.00 85 1017.1
20260504233004 78 294 0.0 2.0 0.00 0.00 0.00 84 1016.8
20260504231512 78 311 1.0 4.0 0.00 0.00 0.00 83 1016.7
20260504230011 78 284 1.0 4.0 0.00 0.00 0.00 82 1016.7
20260504223007 79 270 1.0 8.0 0.00 0.00 0.00 82 1016.3
20260504221506 80 294 2.0 6.0 0.00 0.00 0.00 80 1016.2
20260504220004 81 311 3.0 6.0 0.00 0.00 0.00 78 1015.9
20260504214535 82 27 2.0 8.0 0.00 0.00 0.00 77 1015.7
20260504213017 81 293 2.0 6.0 0.00 0.00 0.00 76 1015.5
20260504211518 81 313 2.0 10.0 0.00 0.00 0.00 76 1015.5
20260504210018 84 269 3.0 14.0 0.00 0.00 0.00 75 1015.5
20260504204511 83 332 7.0 12.0 0.00 0.00 0.00 75 1015.4
20260504203006 83 326 5.0 11.0 0.00 0.00 0.00 75 1015.4
20260504201507 84 274 4.0 12.0 0.00 0.00 0.00 72 1015.5
20260504194520 85 342 3.0 12.0 0.00 0.00 0.00 72 1015.6
20260504191514 83 333 4.0 9.0 0.00 0.00 0.00 75 1015.8
20260504190008 83 252 5.0 12.0 0.00 0.00 0.00 77 1015.7
20260504184513 83 298 3.0 9.0 0.00 0.00 0.00 77 1016.0
20260504183015 83 283 5.0 12.0 0.00 0.00 0.00 75 1016.1
20260504181520 83 330 1.0 9.0 0.00 0.00 0.00 75 1016.1
20260504174516 86 271 3.0 14.0 0.00 0.00 0.00 68 1016.5
20260504173012 85 345 7.0 16.0 0.00 0.00 0.00 68 1016.5
20260504171516 86 250 7.0 12.0 0.00 0.00 0.00 66 1016.8